Location: Brachstadt
(48.6975°N, 10.6755°E)
Time: 06:19:26
(UTC+00:00)

Meteor 1-21 - Pass Details

Date: 18 September 2020
Orbit: 845 x 887 km, 81.2° (Epoch: 27 October)

Event Time Altitude Azimuth Distance (km) Brightness Sun altitude
Rises 18:12:41 0° 347° (NNW) 3,433 7.7 -9.0°
Reaches altitude 10° 18:15:07 10° 347° (NNW) 2,488 7.0 -9.3°
Maximum altitude 18:20:46 86° 261° (W) 856 4.3 -10.3°
Drops below altitude 10° 18:26:22 10° 172° (S) 2,461 6.4 -11.1°
Sets 18:28:45 0° 172° (S) 3,393 7.1 -11.5°
